West Columbia, SC (29169)

4:42 PM EST on February 27, 2017 (GMT -0500)
Abberly Village | | Change Station

Elev 3 ft 34.01 °N, 81.11 °W | Updated 9 seconds ago

Partly Cloudy
Partly Cloudy
72.9 °F
Feels Like 77 °F
N
0.0
Wind Variable Wind from South

Today
High -- | Low -- °F
--% Chance of Precip.
Yesterday
High -- | Low -- °F
Precip. -- in
Pressure 30.31 in
Visibility 10.0 miles
Clouds Scattered Clouds 7000 ft
Scattered Clouds 22000 ft
Heat Index 77 °F
Dew Point 45 °F
Humidity 37%
Rainfall 0.00 in
Snow Depth Not available.
6:55 AM 6:19 PM
New Moon, 2% visible
METAR KCAE 272056Z VRB03KT 10SM SCT070 SCT220 21/06 A3031 RMK AO2 SLP264 T02110056 56016
Pressure 30.31 in
Visibility 10.0 miles
Clouds Scattered Clouds 7000 ft
Scattered Clouds 22000 ft
Heat Index 77 °F
Dew Point 45 °F
Humidity 37%
Rainfall 0.00 in
Snow Depth Not available.
6:55 AM 6:19 PM
New Moon, 2% visible
METAR KCAE 272056Z VRB03KT 10SM SCT070 SCT220 21/06 A3031 RMK AO2 SLP264 T02110056 56016

Get Your Daily Forecast Email!

Thanks for signing up!

Be on the lookout for a verification email in your inbox.

You'll start receiving the daily forecast at 8 AM.

×

10-Day Weather Forecast

Almanac

Astronomy

Feb. 27, 2017 Rise Set
Actual Time
Civil Twilight
Nautical Twilight
Astronomical Twilight
Moon
Length of Visible Light
Length of Day
Tomorrow will be .
, % of the Moon is Illuminated

Today's Extremes

State Highs State Lows

Community

WunderPhotos

Upload Photos

1,962,540 photos uploaded!

WunderBlog® & News

Nearby

Air Quality

  Air Quality AQ Index Pollutant
Not available.

Snow Depth

Station Depth Elevation

Earthquake Activity

City Distance Mag. Time & Date
Minimum magnitude displayed is 2.5.

Coastal Water Temperatures

Place Temperature

Stations

Nearby Weather Stations

Station Location Temp. Windchill Dew Point Humidity Wind Precip. Elev Updated Type
                   

Watches & Warnings

There are currently no watches in effect.